Hourly Weather Pinsa

Today, 13 July, Monday

Time Temperature Precipitation Wind Pressure Humidity
00:00 +30°C° 0.4 mm 5 mps 734 mmHg 56%
01:00 +30°C° 1.2 mm 4 mps 733 mmHg 58%
02:00 +30°C° 1.2 mm 4 mps 733 mmHg 60%
03:00 +29°C° 1.2 mm 4 mps 733 mmHg 62%
04:00 +29°C° 0 mm 4 mps 733 mmHg 61%
05:00 +29°C° 0 mm 4 mps 733 mmHg 61%
06:00 +29°C° 0 mm 5 mps 733 mmHg 60%
07:00 +30°C° 0 mm 5 mps 733 mmHg 56%
08:00 +32°C° 0 mm 5 mps 734 mmHg 51%
09:00 +34°C° 0 mm 6 mps 734 mmHg 47%
10:00 +35°C° 0 mm 6 mps 734 mmHg 43%
11:00 +38°C° 0 mm 6 mps 733 mmHg 39%
12:00 +39°C° 0 mm 6 mps 733 mmHg 35%
13:00 +40°C° 0 mm 5 mps 732 mmHg 33%
14:00 +40°C° 0 mm 5 mps 732 mmHg 31%
15:00 +41°C° 0 mm 4 mps 731 mmHg 29%
16:00 +41°C° 0 mm 4 mps 730 mmHg 28%
17:00 +40°C° 0 mm 3 mps 730 mmHg 28%
18:00 +42°C° 0 mm 3 mps 730 mmHg 27%
19:00 +40°C° 0 mm 3 mps 730 mmHg 30%
20:00 +40°C° 0 mm 4 mps 730 mmHg 33%
21:00 +39°C° 0 mm 5 mps 731 mmHg 35%
22:00 +38°C° 0 mm 6 mps 731 mmHg 39%
23:00 +36°C° 0 mm 6 mps 731 mmHg 42%

Tomorrow, 14 July, Tuesday

Time Temperature Precipitation Wind Pressure Humidity
00:00 +35°C° 0 mm 7 mps 731 mmHg 45%
01:00 +35°C° 0 mm 7 mps 730 mmHg 47%
02:00 +34°C° 0 mm 7 mps 730 mmHg 49%
03:00 +34°C° 0 mm 7 mps 730 mmHg 51%
04:00 +33°C° 0 mm 7 mps 730 mmHg 52%
05:00 +33°C° 0 mm 6 mps 730 mmHg 53%
06:00 +33°C° 0 mm 6 mps 731 mmHg 55%
07:00 +33°C° 0 mm 7 mps 731 mmHg 53%
08:00 +34°C° 0 mm 7 mps 732 mmHg 51%
09:00 +34°C° 0 mm 8 mps 732 mmHg 49%
10:00 +35°C° 0 mm 7 mps 732 mmHg 46%
11:00 +36°C° 0 mm 7 mps 732 mmHg 43%
12:00 +39°C° 0 mm 7 mps 732 mmHg 40%
13:00 +38°C° 0.7 mm 6 mps 731 mmHg 42%
14:00 +38°C° 0.7 mm 6 mps 730 mmHg 43%
15:00 +38°C° 0.7 mm 6 mps 730 mmHg 44%
16:00 +34°C° 0.7 mm 7 mps 729 mmHg 54%
17:00 +32°C° 0.7 mm 8 mps 729 mmHg 64%
18:00 +29°C° 0.7 mm 9 mps 729 mmHg 74%
19:00 +29°C° 1.2 mm 9 mps 730 mmHg 73%
20:00 +29°C° 1.2 mm 9 mps 731 mmHg 73%
21:00 +28°C° 1.2 mm 9 mps 732 mmHg 73%
22:00 +28°C° 0.2 mm 9 mps 731 mmHg 73%
23:00 +28°C° 0.2 mm 9 mps 731 mmHg 73%

Day after tomorrow, 15 July, Wednesday

Time Temperature Precipitation Wind Pressure Humidity
00:00 +28°C° 0.2 mm 8 mps 731 mmHg 73%
01:00 +28°C° 0 mm 8 mps 731 mmHg 74%
02:00 +27°C° 0 mm 7 mps 731 mmHg 74%
03:00 +27°C° 0 mm 7 mps 731 mmHg 75%
04:00 +27°C° 0 mm 7 mps 731 mmHg 75%
05:00 +27°C° 0 mm 7 mps 732 mmHg 76%
06:00 +27°C° 0 mm 7 mps 732 mmHg 77%
07:00 +28°C° 0 mm 6 mps 733 mmHg 74%
08:00 +29°C° 0 mm 6 mps 734 mmHg 70%
09:00 +29°C° 0 mm 6 mps 734 mmHg 67%
10:00 +30°C° 0 mm 6 mps 734 mmHg 64%
11:00 +32°C° 0 mm 5 mps 734 mmHg 62%
12:00 +32°C° 0 mm 5 mps 734 mmHg 59%
13:00 +33°C° 0 mm 5 mps 734 mmHg 57%
14:00 +33°C° 0 mm 5 mps 733 mmHg 56%
15:00 +33°C° 0 mm 5 mps 732 mmHg 54%
16:00 +33°C° 0 mm 4 mps 732 mmHg 53%
17:00 +33°C° 0 mm 4 mps 732 mmHg 53%
18:00 +33°C° 0 mm 3 mps 732 mmHg 52%
19:00 +33°C° 0 mm 3 mps 733 mmHg 53%
20:00 +33°C° 0 mm 3 mps 733 mmHg 55%
21:00 +31°C° 0 mm 3 mps 734 mmHg 56%
22:00 +32°C° 0 mm 4 mps 734 mmHg 58%
23:00 +32°C° 0 mm 4 mps 734 mmHg 60%

16 July, Thursday

Time Temperature Precipitation Wind Pressure Humidity
00:00 +30°C° 0 mm 4 mps 734 mmHg 62%
01:00 +30°C° 0 mm 4 mps 734 mmHg 64%
02:00 +30°C° 0 mm 4 mps 734 mmHg 66%
03:00 +29°C° 0 mm 4 mps 734 mmHg 68%
04:00 +29°C° 0.4 mm 4 mps 734 mmHg 70%
05:00 +29°C° 0.4 mm 4 mps 734 mmHg 71%
06:00 +28°C° 0.4 mm 4 mps 735 mmHg 72%
07:00 +29°C° 0 mm 4 mps 735 mmHg 69%
08:00 +29°C° 0 mm 4 mps 735 mmHg 66%
09:00 +30°C° 0 mm 4 mps 736 mmHg 62%
10:00 +31°C° 0 mm 3 mps 736 mmHg 57%
11:00 +34°C° 0 mm 3 mps 735 mmHg 52%
12:00 +35°C° 0 mm 2 mps 735 mmHg 47%
13:00 +35°C° 0 mm 2 mps 734 mmHg 46%
14:00 +36°C° 0 mm 2 mps 734 mmHg 44%
15:00 +36°C° 0 mm 2 mps 733 mmHg 42%
16:00 +36°C° 0 mm 2 mps 733 mmHg 42%
17:00 +36°C° 0 mm 2 mps 733 mmHg 42%
18:00 +36°C° 0 mm 2 mps 733 mmHg 42%
19:00 +36°C° 0.3 mm 2 mps 734 mmHg 43%
20:00 +35°C° 0.3 mm 2 mps 734 mmHg 45%
21:00 +35°C° 0.3 mm 2 mps 735 mmHg 47%
22:00 +35°C° 0.2 mm 3 mps 734 mmHg 49%
23:00 +34°C° 0.2 mm 3 mps 734 mmHg 51%

17 July, Friday

Time Temperature Precipitation Wind Pressure Humidity
00:00 +34°C° 0.2 mm 4 mps 734 mmHg 53%
01:00 +33°C° 0 mm 4 mps 733 mmHg 55%
02:00 +33°C° 0 mm 4 mps 733 mmHg 56%
03:00 +32°C° 0 mm 4 mps 733 mmHg 58%
04:00 +32°C° 0 mm 4 mps 733 mmHg 60%
05:00 +30°C° 0 mm 4 mps 733 mmHg 62%
06:00 +30°C° 0 mm 4 mps 733 mmHg 64%
07:00 +32°C° 0 mm 4 mps 734 mmHg 60%
08:00 +33°C° 0 mm 4 mps 734 mmHg 56%
09:00 +34°C° 0 mm 4 mps 734 mmHg 52%
10:00 +35°C° 0 mm 3 mps 734 mmHg 48%
11:00 +37°C° 0 mm 3 mps 734 mmHg 43%
12:00 +38°C° 0 mm 2 mps 733 mmHg 39%
13:00 +38°C° 0.1 mm 2 mps 732 mmHg 37%
14:00 +37°C° 0.1 mm 1 mps 732 mmHg 36%
15:00 +39°C° 0.1 mm 1 mps 731 mmHg 34%
16:00 +38°C° 0.1 mm 3 mps 731 mmHg 39%
17:00 +37°C° 0.1 mm 4 mps 731 mmHg 43%
18:00 +35°C° 0.1 mm 6 mps 731 mmHg 48%
19:00 +34°C° 1.9 mm 5 mps 731 mmHg 50%
20:00 +33°C° 1.9 mm 5 mps 732 mmHg 52%
21:00 +32°C° 1.9 mm 4 mps 733 mmHg 54%
22:00 +32°C° 0.1 mm 5 mps 733 mmHg 55%
23:00 +32°C° 0.1 mm 6 mps 733 mmHg 56%

18 July, Saturday

Time Temperature Precipitation Wind Pressure Humidity
00:00 +32°C° 0.1 mm 7 mps 733 mmHg 58%
01:00 +32°C° 0 mm 7 mps 733 mmHg 61%
02:00 +30°C° 0 mm 7 mps 732 mmHg 65%
03:00 +29°C° 0 mm 7 mps 732 mmHg 68%
04:00 +29°C° 0 mm 6 mps 732 mmHg 70%
05:00 +29°C° 0 mm 6 mps 733 mmHg 71%
06:00 +28°C° 0 mm 5 mps 733 mmHg 73%
07:00 +29°C° 0 mm 5 mps 733 mmHg 68%
08:00 +30°C° 0 mm 5 mps 734 mmHg 63%
09:00 +32°C° 0 mm 5 mps 734 mmHg 58%
10:00 +33°C° 0 mm 5 mps 734 mmHg 53%
11:00 +35°C° 0 mm 5 mps 734 mmHg 48%
12:00 +36°C° 0 mm 6 mps 733 mmHg 43%
13:00 +37°C° 0 mm 5 mps 733 mmHg 41%
14:00 +37°C° 0 mm 5 mps 732 mmHg 39%
15:00 +39°C° 0 mm 5 mps 732 mmHg 37%
16:00 +37°C° 0 mm 5 mps 732 mmHg 38%
17:00 +37°C° 0 mm 5 mps 732 mmHg 40%
18:00 +36°C° 0 mm 6 mps 731 mmHg 41%
19:00 +36°C° 0 mm 6 mps 732 mmHg 45%
20:00 +35°C° 0 mm 6 mps 732 mmHg 48%
21:00 +34°C° 0 mm 6 mps 733 mmHg 52%
22:00 +33°C° 0 mm 6 mps 733 mmHg 54%
23:00 +33°C° 0 mm 6 mps 733 mmHg 57%
Show more